User: anonymous   Login
Location: ????????
(55.0808°N, 38.5463°E)
Time: 18:03:55
(UTC+00:00)
Language:

GP-B - Orbit

View from above orbital plane
View from above orbital plane
View from above satellite
View from above satellite

Ground track
Ground track

The orbit data is extracted from the following two-line orbital elements,

1 28230U 04014A   24177.17841452  .00000974  00000-0  12416-3 0  9994
2 28230  89.8286  64.9521 0002738  73.0385 287.1139 14.80870765 88217
Epoch (UTC): 25 June 2024 04:16:55
Eccentricity: 0.0002738
inclination: 89.8286°
perigee height: 624 km
apogee height: 628 km
right ascension of ascending node: 64.9521°
argument of perigee: 73.0385°
revolutions per day: 14.80870765
mean anomaly at epoch: 287.1139°
orbit number at epoch: 8821

The dashed part of the orbit path shows where the satellite is in the earth's shadow,  

DLR